Weather in Daru

Papua New Guinea     8°10′53″S   141°52′24″E
temp.,
°C
wind,
m/s
gust,
m/s
humid.,
%
clouds,
%
prec.,
mm/h
press.,
hPa
HPBL,
m
26 january, tue
tue2601:00+24w119588 0.0 100524
04:00+23nw129759 0.1 100430
07:00+23n149822 0.0 1005169
10:00+30nw366753 0.0 1006837
13:00+34nw365068 0.0 10031701
16:00+35wnw254781 0.0 10002137
19:00+29w147098 0.4 1003154
22:00+25sse129699 16.1 100466
27 january, wed
wed2701:00+24nw1297100 1.4 100561
04:00+24wnw299796 1.4 1003321
07:00+23nnw2798100 0.0 1005293
10:00+29nw3771100 0.0 1006984
13:00+33nw365699 0.2 10031615
16:00+29wnw378699 7.3 1001859
19:00+25wnw21095100 6.2 1003583
22:00+24w2997100 8.4 1005432
28 january, thu
thu2801:00+25nw31295100 6.4 1004528
04:00+24nnw31098100 10.4 1003618
07:00+24nnw2898100 1.7 1005535
10:00+25nw3994100 1.9 1006753
13:00+28wnw378493 2.3 1004940
16:00+27wnw269296 9.9 1002618
19:00+25wnw2696100 4.9 1003204
22:00+24nw1697100 7.4 1006181
29 january, fri
fri2901:00+24nw2898100 0.3 1005361
04:00+23nw2998100 0.4 1004322
07:00+23nw31297100 0.3 1005533
10:00+28nw4107294 0.3 10061173
13:00+29nw497580 1.8 10041358
16:00+28wnw4128890 7.9 10021493
19:00+25nw21193100 1.0 1003834
22:00+23nw31395100 1.4 1006837
30 january, sat
sat3001:00+23nw41397100 3.4 1005863
04:00+23nw31297100 6.4 1003662
07:00+23nw21296100 0.0 1004803
10:00+28wnw4876100 0.0 10051015
13:00+30wnw4972100 0.9 10031398
16:00+28wnw3687100 3.8 1001930
19:00+26wnw2795100 2.2 1003284
22:00+24wnw21196100 4.1 1005619